Miscellaneous Local Product
Issued by NWS Hastings, NE

Home | Current Version | Previous Version | Graphics & Text | Print | Product List | Glossary On
Versions: 1 2 3 4 5 6 7 8 9 10 11 12 13 14 15 16 17 18 19 20 21 22 23 24 25 26 27 28 29 30 31 32 33 34 35 36 37 38 39 40 41 42 43 44 45 46 47 48 49 50
597
AXUS43 KGID 200002
MISGRI

GID CWA HOURLY WEATHER ROUNDUP
NATIONAL WEATHER SERVICE HASTINGS NE
600 PM CST SUN FEB 19 2017

NOTE: "FAIR" INDICATES FEW OR NO CLOUDS BELOW 12,000 FEET WITH NO
SIGNIFICANT WEATHER AND/OR OBSTRUCTIONS TO VISIBILITY.

...SOUTH CENTRAL NEBRASKA...

CITY           SKY/WX    TMP DP  RH WIND       PRES   REMARKS
GRAND ISLAND   MOCLDY    61  51  70 S16       29.74R
HASTINGS       PTCLDY    61  49  64 S14       29.74S
KEARNEY        PTCLDY    64  45  48 S20G25    29.71S
ORD            CLOUDY    66  42  41 S14       29.67S
YORK           PTCLDY    59  50  72 S12       29.76S
AURORA         MOCLDY    60  49  68 S14G20    29.75R
LEXINGTON      PTCLDY    67  44  42 SE16      29.67S
HOLDREGE       CLOUDY    65  44  46 SE20G25   29.70R
HEBRON         PTCLDY    58  50  73 S8        29.78F

...NEBRASKA PANHANDLE...

CITY           SKY/WX    TMP DP  RH WIND       PRES   REMARKS
CHADRON        CLOUDY    59  34  39 S13       29.56R
ALLIANCE       CLOUDY    54  33  45 SE7       29.58S
SCOTTSBLUFF    CLOUDY    54  34  46 E7        29.57R
SIDNEY         CLOUDY    59  36  42 S23G30    29.58R

...WESTERN AND NORTH CENTRAL NEBRASKA...

CITY           SKY/WX    TMP DP  RH WIND       PRES   REMARKS
VALENTINE      CLOUDY    60  38  43 S9        29.59R
AINSWORTH      CLOUDY    60  44  54 S15       29.61R
ONEILL         CLOUDY    65  44  45 S15       29.64F
BROKEN BOW     MOCLDY    66  45  46 S13       29.67R
IMPERIAL       CLOUDY    64  40  41 S13       29.62S
NORTH PLATTE   TSTM      67  45  45 S12       29.62F
MCCOOK         PTCLDY    70  50  49 S18G28    29.65R

...EASTERN NEBRASKA...

CITY           SKY/WX    TMP DP  RH WIND       PRES   REMARKS
NORFOLK        CLOUDY    63  48  58 S20G26    29.71S
SO SIOUX CITY  PTCLDY    63  52  67 S15       29.74S
TEKAMAH        PTCLDY    61  50  67 S12       29.77S
COLUMBUS       CLOUDY    63  50  63 S12       29.75F
ALBION         CLOUDY    63  48  57 S15       29.71S
OMAHA EPPLEY   MOCLDY    69  52  54 S20G26    29.80R
OFFUTT AFB     CLOUDY    67  54  62 S14       29.80R
MILLARD        CLOUDY    69  54  57 S9        29.80R
LINCOLN        CLEAR     64  51  62 S12       29.79R
NEBRASKA CITY  CLOUDY    66  48  52 S10       29.82S
BEATRICE       CLEAR     61  52  73 S15       29.80F
FALLS CITY     CLOUDY    67  54  63 S13       29.84R

...NORTHERN KANSAS...

CITY           SKY/WX    TMP DP  RH WIND       PRES   REMARKS
GOODLAND       CLOUDY    64  36  35 S18G30    29.67R
HILL CITY      PTCLDY    69  49  48 S15G29    29.71R
NORTON         CLEAR     68  41  37 SE18G25   29.69R
PHILLIPSBURG   CLEAR     68  46  45 SE13G20   29.73R
SMITH CENTER   CLEAR     61  48  63 SE18      29.76R
HAYS           MOCLDY    60  52  74 SE17      29.75R
RUSSELL        PTCLDY    60  52  74 S22G30    29.76R
CONCORDIA      CLEAR     60  52  74 S18       29.80R
SALINA         MOCLDY    63  54  72 S20G29    29.85R
TOPEKA         PTCLDY    64  55  72 CALM      29.86F



USA.gov is the U.S. government's official web portal to all federal, state and local government web resources and services.